Provo, UT

6:06 PM MST on November 21, 2019 (GMT -0700)
Provo Municipal

Weather History for KPVU - August, 2019

Change the Weather History Date:

Monday, August 19, 2019

  Actual Average Record
Temperature  
Mean Temperature 76 °F -  
Max Temperature 93 °F 85 °F 96 °F (1986)
Min Temperature 59 °F 56 °F 46 °F (1984)
Cooling Degree Days 11    
Growing Degree Days 26 (Base 50)    
Moisture  
Dew Point 38 °F    
Average Humidity 29    
Maximum Humidity 50    
Minimum Humidity 10    
Precipitation  
Precipitation 0.00 in - - ()
Sea Level Pressure  
Sea Level Pressure 29.88 in    
Wind  
Wind Speed 6 mph (ESE)    
Max Wind Speed 16 mph    
Max Gust Speed 20 mph    
Visibility 10 miles    
Events      
Averages and records for this station are not official NWS values.
T = Trace of Precipitation, MM = Missing Value Source: NWS Daily Summary

Daily Weather History Graph

Daily Weather History Graph

Search for Another Location

Airport or City:

Astronomy

Aug. 19, 2019 Rise Set
Actual Time 6:41 AM MDT 8:18 PM MDT
Civil Twilight 6:13 AM MDT 8:47 PM MDT
Nautical Twilight 5:38 AM MDT 9:21 PM MDT
Astronomical Twilight 5:01 AM MDT 9:58 PM MDT
Moon 10:41 PM MDT (8/19) 10:26 AM MDT (8/19)
Length of Visible Light 14h 34m
Length of Day
13h 36m
Waning Gibbous, 85% of the Moon is Illuminated
Aug 19
Waning Gibbous
Aug 23
Last Quarter
Aug 30
New
Sep 5
First Quarter
Sep 13
Full

Hourly Weather History & Observations

Time (MDT) Temp. Dew Point Humidity Pressure Visibility Wind Dir Wind Speed Gust Speed Precip Events Conditions
12:56 AM 70.0 °F 44.1 °F 39% 29.84 in 10.0 mi ESE 5.8 mph - N/A   Clear
1:56 AM 64.0 °F 39.9 °F 41% 29.86 in 10.0 mi Calm Calm - N/A   Clear
2:56 AM 64.0 °F 41.0 °F 43% 29.85 in 10.0 mi SE 3.5 mph - N/A   Clear
3:56 AM 64.0 °F 43.0 °F 46% 29.86 in 10.0 mi Calm Calm - N/A   Clear
4:56 AM 59.0 °F 37.9 °F 46% 29.89 in 10.0 mi ESE 5.8 mph - N/A   Clear
5:56 AM 62.1 °F 37.9 °F 41% 29.89 in 10.0 mi ESE 10.4 mph - N/A   Clear
6:56 AM 59.0 °F 35.1 °F 41% 29.91 in 10.0 mi East 5.8 mph - N/A   Clear
7:56 AM 68.0 °F 37.0 °F 32% 29.92 in 10.0 mi SE 16.1 mph - N/A   Clear
8:56 AM 72.0 °F 39.9 °F 31% 29.94 in 10.0 mi SE 11.5 mph - N/A   Clear
9:56 AM 78.1 °F 39.9 °F 25% 29.94 in 10.0 mi SE 10.4 mph - N/A   Clear
10:56 AM 84.9 °F 37.9 °F 19% 29.93 in 10.0 mi SE 8.1 mph - N/A   Partly Cloudy
11:56 AM 88.0 °F 35.1 °F 15% 29.93 in 10.0 mi ESE 9.2 mph - N/A   Partly Cloudy
12:56 PM 91.0 °F 37.0 °F 15% 29.90 in 10.0 mi SE 10.4 mph 19.6 mph N/A   Scattered Clouds
1:56 PM 93.0 °F 35.1 °F 13% 29.89 in 10.0 mi SSW 8.1 mph - N/A   Clear
2:56 PM 91.9 °F 32.0 °F 12% 29.88 in 10.0 mi Variable 4.6 mph - N/A   Scattered Clouds
3:56 PM 91.9 °F 28.0 °F 10% 29.86 in 10.0 mi West 4.6 mph - N/A   Scattered Clouds
4:56 PM 93.0 °F 30.0 °F 11% 29.85 in 10.0 mi North 6.9 mph - N/A   Scattered Clouds
5:56 PM 93.0 °F 32.0 °F 12% 29.83 in 10.0 mi NE 5.8 mph - N/A   Clear
6:56 PM 91.9 °F 30.0 °F 11% 29.83 in 10.0 mi NE 3.5 mph - N/A   Clear
7:56 PM 86.0 °F 41.0 °F 20% 29.82 in 9.0 mi Variable 3.5 mph - N/A   Clear
8:56 PM 78.1 °F 41.0 °F 27% 29.85 in 10.0 mi Calm Calm - N/A   Clear
9:56 PM 73.9 °F 46.9 °F 38% 29.87 in 10.0 mi East 3.5 mph - N/A   Clear
10:56 PM 68.0 °F 48.9 °F 50% 29.88 in 10.0 mi ESE 5.8 mph - N/A   Clear
11:56 PM 68.0 °F 48.0 °F 49% 29.88 in 10.0 mi Calm Calm - N/A   Clear